Back to catalog

FAST 2

USA 228

AliveMilitaryLEO
NORAD 37380·PAYLOAD·🇺🇸 United States

Launched Nov 20, 2010 from Kodiak Launch Complex

Loading…

Next Passes (next 24 hours)

TLE

FreshSource: Space-Track

Epoch: Sep 14, 2026, 13:54 UTC

1 37380U 10062M   26257.57964133  .00000483  00000-0  63904-4 0  9991
2 37380  71.9715 305.8456 0017222 300.2895  59.6566 14.84761415379046

Track FAST 2 in real time with AllMySat

Download on the App Store